Lid_Strength_Index
6 6 5 4 3 3 3 2 2 2 2 2 1 1 1 1 1 1 1 1 1 1 2 2 2 2 2 2 2 2 2 2
6 6 6 5 4 4 3 3 2 2 2 2 2 1 1 1 1 1 1 1 1 1 2 2 2 3 3 2 2 2 2 2
7 7 7 7 6 5 5 4 2 2 2 2 2 1 2 2 1 1 1 1 1 1 2 2 2 3 2 2 2 2 3 3
7 8 8 7 7 6 5 5 4 2 2 3 2 2 2 2 1 1 1 1 1 2 2 2 2 3 2 2 1 2 3 3
8 8 7 7 8 7 7 6 5 3 3 3 3 2 2 2 2 2 1 2 2 2 2 2 2 2 2 2 2 3 3 4
7 7 7 7 8 8 8 7 6 4 4 3 2 3 2 2 2 2 2 2 2 2 2 3 3 3 3 4 3 3 4 5
5 5 6 7 7 8 8 8 7 5 4 3 3 3 3 3 4 3 3 3 3 3 3 3 5 8 8 5 4 5 6 7
5 5 5 6 7 8 8 8 8 7 6 6 6 7 6 7 7 7 6 6 6 5 5 4 6 9 9 9 5 6 6 7
6 6 5 5 7 7 8 8 9 9 8 9 9 8 9 9 8 9 8 7 8 8 6 5 7 10 10 11 7 7 8 8
9 9 8 5 5 7 9 9 10 11 11 10 9 9 10 10 9 8 9 10 9 9 9 8 11 11 11 10 10 11 11 11
11 10 10 9 7 8 10 11 10 11 11 10 10 9 9 8 9 11 9 10 11 13 10 12 11 12 11 10 11 13 13 13
12 12 11 11 11 10 9 11 11 11 12 12 10 9 8 8 10 12 11 13 13 13 14 14 13 12 11 10 12 12 14 14
14 14 13 12 12 12 10 9 11 12 12 12 11 11 10 11 12 12 12 12 13 14 14 14 14 13 11 11 12 12 14 15
14 15 15 14 14 14 13 12 11 12 12 12 13 12 12 12 13 13 12 12 13 13 13 14 14 13 12 12 12 12 14 14
16 16 17 16 16 15 15 14 13 12 12 13 13 13 12 12 12 11 12 12 12 12 13 14 14 14 13 13 12 13 14 14
18 18 17 17 16 16 16 15 15 14 14 13 13 13 13 12 12 12 11 10 12 12 12 14 14 13 12 13 14 14 14 14
21 20 19 19 19 18 19 18 15 15 14 13 13 14 13 13 14 12 11 11 11 11 12 13 11 12 12 12 12 13 13 14
24 21 22 22 21 20 21 20 16 14 14 14 14 14 14 14 13 14 13 11 11 12 12 12 12 12 12 12 12 12 13 15
24 24 24 23 23 23 22 21 17 15 14 14 14 14 14 14 13 14 14 14 14 12 12 12 13 13 13 12 13 14 14 14
24 25 25 25 24 23 23 22 20 16 15 15 14 15 14 15 14 14 14 15 15 15 14 14 13 13 13 13 14 14 15 15